Change the Weather History Date:

Wednesday, March 26, 2014

  Actual Average (KSAT) Record (KSAT)
Temperature  
Mean Temperature 55 °F 64 °F  
Max Temperature 59 °F 76 °F 97 °F (1950)
Min Temperature 52 °F 53 °F 31 °F (1955)
Degree Days  
Heating Degree Days 10 3  
Month to date heating degree days 138  
Since 1 July heating degree days 1439  
Cooling Degree Days 0 3  
Month to date cooling degree days 51  
Year to date cooling degree days 77  
Growing Degree Days 5 (Base 50)    
Moisture  
Dew Point 47 °F    
Average Humidity 74    
Maximum Humidity 95    
Minimum Humidity 49    
Precipitation  
Precipitation 0.00 in 0.08 in 1.47 in (1900)
Month to date precipitation 1.98  
Year to date precipitation 5.53  
Snow  
Snow 0.00 in - - ()
Month to date snowfall  
Since 1 July snowfall  
Snow Depth -    
Sea Level Pressure  
Sea Level Pressure 30.05 in    
Wind  
Wind Speed 12 mph (SSE)    
Max Wind Speed 28 mph    
Max Gust Speed 34 mph    
Visibility 9 miles    
Events Rain    
T = Trace of Precipitation, MM = Missing Value Source: NWS Daily Summary

Daily Weather History Graph

Daily Weather History Graph

Search for Another Location

Airport or City:

Trip Planner

Search our weather history database for the weather conditions in past years. The results will help you decide how hot, cold, wet, or windy it might be!

Date:

Astronomy

Mar. 26, 2014 Rise Set
Actual Time 7:32 AM CDT 7:50 PM CDT
Civil Twilight 7:08 AM CDT 8:14 PM CDT
Nautical Twilight 6:40 AM CDT 8:42 PM CDT
Astronomical Twilight 6:11 AM CDT 9:11 PM CDT
Moon 4:24 AM CDT (3/26) 3:47 PM CDT (3/26)
Length of Visible Light 13h 06m
Length of Day
12h 18m
Waning Crescent, 21% of the Moon is Illuminated
Mar 26
Waning Crescent
Mar 30
New
Apr 7
First Quarter
Apr 15
Full
Apr 22
Last Quarter

Hourly Weather History & Observations

Time (CDT) Temp. Dew Point Humidity Pressure Visibility Wind Dir Wind Speed Gust Speed Precip Events Conditions
12:15 AM 55.0 °F 36.0 °F 49% 30.19 in 10.0 mi SSE 6.9 mph - N/A   Scattered Clouds
12:35 AM 54.7 °F 36.5 °F 50% 30.18 in 10.0 mi SSE 11.5 mph - N/A   Clear
12:55 AM 54.5 °F 36.7 °F 51% 30.17 in 10.0 mi SSE 6.9 mph - N/A   Mostly Cloudy
1:15 AM 54.5 °F 36.7 °F 51% 30.18 in 10.0 mi SSE 6.9 mph - N/A   Overcast
1:35 AM 54.5 °F 36.9 °F 51% 30.17 in 10.0 mi SE 5.8 mph - N/A   Mostly Cloudy
1:55 AM 54.5 °F 37.2 °F 52% 30.17 in 10.0 mi SSE 8.1 mph - N/A   Mostly Cloudy
2:15 AM 54.5 °F 36.9 °F 51% 30.17 in 10.0 mi SSE 9.2 mph - N/A   Overcast
2:35 AM 54.5 °F 37.8 °F 53% 30.16 in 10.0 mi SSE 10.4 mph - N/A   Overcast
2:55 AM 54.0 °F 39.2 °F 57% 30.15 in 10.0 mi SSE 9.2 mph - N/A   Overcast
3:15 AM 53.6 °F 39.9 °F 60% 30.13 in 10.0 mi SSE 6.9 mph - N/A   Overcast
3:35 AM 53.2 °F 40.5 °F 62% 30.11 in 10.0 mi SE 8.1 mph - N/A   Overcast
3:55 AM 53.1 °F 41.4 °F 64% 30.12 in 10.0 mi South 6.9 mph - N/A   Mostly Cloudy
4:15 AM 52.9 °F 41.5 °F 65% 30.11 in 10.0 mi SSE 10.4 mph 16.1 mph N/A   Mostly Cloudy
4:35 AM 52.7 °F 41.9 °F 67% 30.10 in 10.0 mi South 9.2 mph 17.3 mph N/A Rain Light Rain
4:55 AM 52.7 °F 41.9 °F 67% 30.09 in 10.0 mi South 11.5 mph 16.1 mph N/A   Scattered Clouds
5:15 AM 52.9 °F 41.9 °F 66% 30.09 in 10.0 mi SSE 12.7 mph 19.6 mph N/A   Mostly Cloudy
5:35 AM 52.9 °F 41.5 °F 65% 30.08 in 10.0 mi South 13.8 mph 18.4 mph N/A   Overcast
5:55 AM 52.7 °F 40.1 °F 62% 30.08 in 10.0 mi South 11.5 mph 21.9 mph N/A   Overcast
6:15 AM 52.7 °F 37.9 °F 57% 30.08 in 10.0 mi South 12.7 mph 18.4 mph N/A   Mostly Cloudy
6:35 AM 52.7 °F 40.3 °F 63% 30.09 in 10.0 mi South 10.4 mph 19.6 mph N/A   Mostly Cloudy
6:55 AM 52.5 °F 41.9 °F 67% 30.09 in 10.0 mi South 15.0 mph 23.0 mph N/A   Mostly Cloudy
7:15 AM 52.7 °F 42.3 °F 68% 30.09 in 10.0 mi South 11.5 mph 19.6 mph N/A   Overcast
7:35 AM 52.7 °F 43.9 °F 72% 30.09 in 10.0 mi South 12.7 mph 21.9 mph N/A   Overcast
7:55 AM 53.1 °F 44.8 °F 73% 30.09 in 10.0 mi South 17.3 mph 20.7 mph N/A   Overcast
8:15 AM 53.6 °F 45.1 °F 73% 30.10 in 10.0 mi South 13.8 mph 23.0 mph N/A   Overcast
8:35 AM 53.8 °F 45.5 °F 74% 30.09 in 10.0 mi South 17.3 mph 24.2 mph N/A   Overcast
8:55 AM 54.1 °F 45.9 °F 74% 30.10 in 10.0 mi South 16.1 mph 26.5 mph N/A   Overcast
9:15 AM 54.5 °F 46.2 °F 74% 30.09 in 10.0 mi South 18.4 mph 33.4 mph N/A   Overcast
9:35 AM 55.6 °F 45.5 °F 69% 30.09 in 10.0 mi South 19.6 mph 26.5 mph N/A   Overcast
9:55 AM 56.1 °F 45.5 °F 68% 30.09 in 10.0 mi South 23.0 mph 32.2 mph N/A   Overcast
10:15 AM 56.3 °F 45.1 °F 66% 30.09 in 10.0 mi South 24.2 mph 31.1 mph N/A   Overcast
10:35 AM 56.8 °F 45.9 °F 67% 30.09 in 10.0 mi South 23.0 mph 29.9 mph N/A   Overcast
10:55 AM 57.0 °F 45.5 °F 65% 30.09 in 10.0 mi South 19.6 mph 34.5 mph N/A   Overcast
11:15 AM 56.3 °F 45.5 °F 67% 30.09 in 10.0 mi South 17.3 mph 25.3 mph N/A   Overcast
11:35 AM 55.6 °F 45.7 °F 69% 30.10 in 10.0 mi South 17.3 mph 27.6 mph N/A   Overcast
11:55 AM 56.3 °F 46.8 °F 70% 30.09 in 10.0 mi South 19.6 mph 27.6 mph N/A   Overcast
12:15 PM 58.8 °F 46.8 °F 64% 30.08 in 10.0 mi South 19.6 mph 31.1 mph N/A   Overcast
12:35 PM 58.8 °F 45.3 °F 61% 30.06 in 10.0 mi South 19.6 mph 31.1 mph N/A   Overcast
12:55 PM 58.1 °F 47.8 °F 69% 30.06 in 10.0 mi South 20.7 mph 27.6 mph N/A   Overcast
1:15 PM 56.7 °F 49.1 °F 76% 30.06 in 10.0 mi South 23.0 mph 27.6 mph N/A   Overcast
1:35 PM 56.7 °F 48.4 °F 74% 30.05 in 10.0 mi South 27.6 mph 31.1 mph N/A   Overcast
1:55 PM 56.7 °F 48.6 °F 74% 30.04 in 10.0 mi South 16.1 mph 20.7 mph N/A   Overcast
2:15 PM 56.7 °F 48.9 °F 75% 30.04 in 10.0 mi South 15.0 mph 23.0 mph N/A   Overcast
2:35 PM 57.0 °F 49.3 °F 75% 30.03 in 10.0 mi South 17.3 mph 23.0 mph N/A   Overcast
2:55 PM 57.7 °F 49.1 °F 73% 30.02 in 10.0 mi South 18.4 mph 25.3 mph N/A   Overcast
3:15 PM 57.9 °F 49.1 °F 72% 30.00 in 10.0 mi South 13.8 mph 23.0 mph N/A   Overcast
3:35 PM 58.5 °F 49.3 °F 72% 30.00 in 10.0 mi South 15.0 mph 21.9 mph N/A   Overcast
3:55 PM 58.3 °F 49.3 °F 72% 29.99 in 10.0 mi South 12.7 mph 24.2 mph N/A   Overcast
4:15 PM 58.1 °F 50.0 °F 74% 29.98 in 10.0 mi South 21.9 mph 29.9 mph N/A   Overcast
4:35 PM 56.3 °F 51.6 °F 84% 29.98 in 5.0 mi South 12.7 mph 20.7 mph N/A   Overcast
4:55 PM 55.8 °F 52.2 °F 88% 29.98 in 7.0 mi South 6.9 mph 16.1 mph N/A   Overcast
5:35 PM 55.8 °F 53.2 °F 91% 29.97 in 7.0 mi South 9.2 mph - N/A   Overcast
5:55 PM 55.8 °F 53.6 °F 92% 29.97 in 4.0 mi South 8.1 mph - N/A   Overcast
6:15 PM 55.9 °F 53.6 °F 92% 29.97 in 5.0 mi South 15.0 mph 24.2 mph N/A   Overcast
6:35 PM 56.3 °F 53.8 °F 91% 29.97 in 5.0 mi South 11.5 mph 23.0 mph N/A   Overcast
6:55 PM 56.3 °F 54.0 °F 92% 29.96 in 7.0 mi South 16.1 mph 23.0 mph N/A   Overcast
7:15 PM 56.3 °F 54.0 °F 92% 29.96 in 7.0 mi South 13.8 mph 21.9 mph N/A   Overcast
7:35 PM 56.3 °F 54.1 °F 92% 29.95 in 10.0 mi South 11.5 mph 17.3 mph N/A   Overcast
7:55 PM 56.5 °F 54.5 °F 93% 29.95 in 7.0 mi SSE 6.9 mph 18.4 mph N/A   Overcast
8:15 PM 56.7 °F 54.5 °F 92% 29.94 in 10.0 mi SSE 16.1 mph 23.0 mph N/A   Overcast
8:35 PM 56.8 °F 54.5 °F 92% 29.94 in 10.0 mi South 16.1 mph 25.3 mph N/A   Overcast
8:55 PM 56.7 °F 54.5 °F 92% 29.95 in 10.0 mi SSE 13.8 mph 20.7 mph N/A   Overcast
9:15 PM 56.8 °F 54.7 °F 92% 29.95 in 10.0 mi South 10.4 mph 17.3 mph N/A   Overcast
9:35 PM 57.2 °F 54.7 °F 91% 29.96 in 10.0 mi South 12.7 mph 24.2 mph N/A   Overcast
9:55 PM 57.2 °F 55.0 °F 92% 29.95 in 7.0 mi South 13.8 mph 19.6 mph N/A   Overcast
10:15 PM 57.2 °F 55.4 °F 94% 29.95 in 7.0 mi SSE 11.5 mph 19.6 mph N/A   Overcast
10:35 PM 57.2 °F 55.4 °F 94% 29.95 in 7.0 mi South 12.7 mph 21.9 mph N/A   Overcast
10:55 PM 57.2 °F 55.4 °F 94% 29.95 in 7.0 mi South 12.7 mph 24.2 mph N/A   Overcast
11:15 PM 57.4 °F 55.6 °F 94% 29.95 in 5.0 mi South 11.5 mph 20.7 mph N/A   Overcast
11:35 PM 57.4 °F 55.8 °F 94% 29.94 in 7.0 mi South 15.0 mph 19.6 mph N/A   Overcast
11:55 PM 57.4 °F 55.9 °F 95% 29.93 in 7.0 mi South 17.3 mph - N/A   Overcast